Time,TemperatureF,DewpointF,PressureIn,WindDirection,WindDirectionDegrees,WindSpeedMPH,WindSpeedGustMPH,Humidity,HourlyPrecipIn,Conditions,Clouds,dailyrainin,SoftwareType,DateUTC
2013-07-04 00:12:00,68.0,66.0,-100.00,ESE,122,0.0,0.0,92,0.00,,,0.00,,2013-07-04 05:12:00,
2013-07-04 00:22:00,68.0,66.0,-100.00,ESE,122,0.0,0.0,92,0.00,,,0.00,,2013-07-04 05:22:00,
2013-07-04 00:33:00,68.0,66.0,-100.00,ESE,122,0.0,0.0,92,0.00,,,0.00,,2013-07-04 05:33:00,
2013-07-04 00:43:00,68.0,66.0,-100.00,ESE,122,0.0,0.0,92,0.00,,,0.00,,2013-07-04 05:43:00,
2013-07-04 01:11:00,67.0,65.0,-100.00,NW,321,0.0,0.0,94,0.00,,,0.00,,2013-07-04 06:11:00,
2013-07-04 01:22:00,67.0,65.0,-100.00,NW,321,0.0,0.0,94,0.00,,,0.00,,2013-07-04 06:22:00,
2013-07-04 01:34:00,67.0,65.0,-100.00,NW,321,0.0,0.0,94,0.00,,,0.00,,2013-07-04 06:34:00,
2013-07-04 01:43:00,67.0,65.0,-100.00,NW,321,0.0,0.0,94,0.00,,,0.00,,2013-07-04 06:43:00,
2013-07-04 02:12:00,66.0,65.0,-100.00,NW,324,0.0,0.0,95,0.00,,,0.00,,2013-07-04 07:12:00,
2013-07-04 02:22:00,66.0,65.0,-100.00,NW,324,0.0,0.0,95,0.00,,,0.00,,2013-07-04 07:22:00,
2013-07-04 02:34:00,66.0,65.0,-100.00,NW,324,0.0,0.0,95,0.00,,,0.00,,2013-07-04 07:34:00,
2013-07-04 02:43:00,66.0,65.0,-100.00,NW,324,0.0,0.0,95,0.00,,,0.00,,2013-07-04 07:43:00,
2013-07-04 03:11:00,65.0,64.0,-100.00,WNW,291,0.0,0.0,95,0.00,,,0.00,,2013-07-04 08:11:00,
2013-07-04 03:22:00,65.0,64.0,-100.00,WNW,291,0.0,0.0,95,0.00,,,0.00,,2013-07-04 08:22:00,
2013-07-04 03:33:00,65.0,64.0,-100.00,WNW,291,0.0,0.0,95,0.00,,,0.00,,2013-07-04 08:33:00,
2013-07-04 03:42:00,65.0,64.0,-100.00,WNW,291,0.0,0.0,95,0.00,,,0.00,,2013-07-04 08:42:00,
2013-07-04 04:11:00,65.0,64.0,-100.00,South,183,0.0,0.0,96,0.00,,,0.00,,2013-07-04 09:11:00,
2013-07-04 04:22:00,65.0,64.0,-100.00,South,183,0.0,0.0,96,0.00,,,0.00,,2013-07-04 09:22:00,
2013-07-04 04:32:00,65.0,64.0,-100.00,South,183,0.0,0.0,96,0.00,,,0.00,,2013-07-04 09:32:00,
2013-07-04 04:42:00,65.0,64.0,-100.00,South,183,0.0,0.0,96,0.00,,,0.00,,2013-07-04 09:42:00,
2013-07-04 05:11:00,65.0,64.0,-100.00,South,169,0.0,0.0,96,0.00,,,0.00,,2013-07-04 10:11:00,
2013-07-04 05:22:00,65.0,64.0,-100.00,South,169,0.0,0.0,96,0.00,,,0.00,,2013-07-04 10:22:00,
2013-07-04 05:34:00,65.0,64.0,-100.00,South,169,0.0,0.0,96,0.00,,,0.00,,2013-07-04 10:34:00,
2013-07-04 05:43:00,65.0,64.0,-100.00,South,169,0.0,0.0,96,0.00,,,0.00,,2013-07-04 10:43:00,
2013-07-04 06:11:00,64.0,63.0,-100.00,WNW,302,0.0,0.0,96,0.00,,,0.00,,2013-07-04 11:11:00,
2013-07-04 06:22:00,64.0,63.0,-100.00,WNW,302,0.0,0.0,96,0.00,,,0.00,,2013-07-04 11:22:00,
2013-07-04 06:34:00,64.0,63.0,-100.00,WNW,302,0.0,0.0,96,0.00,,,0.00,,2013-07-04 11:34:00,
2013-07-04 06:43:00,64.0,63.0,-100.00,WNW,302,0.0,0.0,96,0.00,,,0.00,,2013-07-04 11:43:00,
2013-07-04 07:12:00,64.0,63.0,-100.00,NW,311,0.0,0.0,96,0.00,,,0.00,,2013-07-04 12:12:00,
2013-07-04 07:22:00,64.0,63.0,-100.00,NW,311,0.0,0.0,96,0.00,,,0.00,,2013-07-04 12:22:00,
2013-07-04 07:33:00,64.0,63.0,-100.00,NW,311,0.0,0.0,96,0.00,,,0.00,,2013-07-04 12:33:00,
2013-07-04 07:43:00,64.0,63.0,-100.00,NW,311,0.0,0.0,96,0.00,,,0.00,,2013-07-04 12:43:00,
2013-07-04 08:12:00,70.0,67.0,-100.00,NNW,338,1.0,2.0,89,0.00,,,0.00,,2013-07-04 13:12:00,
2013-07-04 08:23:00,70.0,67.0,-100.00,NNW,338,1.0,2.0,89,0.00,,,0.00,,2013-07-04 13:23:00,
2013-07-04 08:33:00,70.0,67.0,-100.00,NNW,338,1.0,2.0,89,0.00,,,0.00,,2013-07-04 13:33:00,
2013-07-04 08:43:00,70.0,67.0,-100.00,NNW,338,1.0,2.0,89,0.00,,,0.00,,2013-07-04 13:43:00,
2013-07-04 09:11:00,76.0,65.0,-100.00,East,81,3.0,5.0,70,0.00,,,0.00,,2013-07-04 14:11:00,
2013-07-04 09:22:00,76.0,65.0,-100.00,East,81,3.0,5.0,70,0.00,,,0.00,,2013-07-04 14:22:00,
2013-07-04 09:33:00,76.0,65.0,-100.00,East,81,3.0,5.0,70,0.00,,,0.00,,2013-07-04 14:33:00,
2013-07-04 09:43:00,76.0,65.0,-100.00,East,81,3.0,5.0,70,0.00,,,0.00,,2013-07-04 14:43:00,
2013-07-04 10:11:00,81.0,67.0,-100.00,ENE,63,3.0,4.0,63,0.00,,,0.00,,2013-07-04 15:11:00,
2013-07-04 10:23:00,81.0,67.0,-100.00,ENE,63,3.0,4.0,63,0.00,,,0.00,,2013-07-04 15:23:00,
2013-07-04 10:33:00,81.0,67.0,-100.00,ENE,63,3.0,4.0,63,0.00,,,0.00,,2013-07-04 15:33:00,
2013-07-04 10:43:00,81.0,67.0,-100.00,ENE,63,3.0,4.0,63,0.00,,,0.00,,2013-07-04 15:43:00,
2013-07-04 11:11:00,84.0,67.0,-100.00,North,7,4.0,8.0,56,0.00,,,0.00,,2013-07-04 16:11:00,
2013-07-04 11:22:00,84.0,67.0,-100.00,North,7,4.0,8.0,56,0.00,,,0.00,,2013-07-04 16:22:00,
2013-07-04 11:33:00,84.0,67.0,-100.00,North,7,4.0,8.0,56,0.00,,,0.00,,2013-07-04 16:33:00,
2013-07-04 11:43:00,84.0,67.0,-100.00,North,7,4.0,8.0,56,0.00,,,0.00,,2013-07-04 16:43:00,
2013-07-04 12:12:00,86.0,66.0,-100.00,North,6,5.0,10.0,52,0.00,,,0.00,,2013-07-04 17:12:00,
2013-07-04 12:22:00,86.0,66.0,-100.00,North,6,5.0,10.0,52,0.00,,,0.00,,2013-07-04 17:22:00,
2013-07-04 12:34:00,86.0,66.0,-100.00,North,6,5.0,10.0,52,0.00,,,0.00,,2013-07-04 17:34:00,
2013-07-04 12:43:00,86.0,66.0,-100.00,North,6,5.0,10.0,52,0.00,,,0.00,,2013-07-04 17:43:00,
2013-07-04 13:11:00,87.0,65.0,-100.00,North,356,5.0,10.0,48,0.00,,,0.00,,2013-07-04 18:11:00,
2013-07-04 13:22:00,87.0,65.0,-100.00,North,356,5.0,10.0,48,0.00,,,0.00,,2013-07-04 18:22:00,
2013-07-04 13:33:00,87.0,65.0,-100.00,North,356,5.0,10.0,48,0.00,,,0.00,,2013-07-04 18:33:00,
2013-07-04 13:43:00,87.0,65.0,-100.00,North,356,5.0,10.0,48,0.00,,,0.00,,2013-07-04 18:43:00,
2013-07-04 14:12:00,90.0,62.0,-100.00,NE,40,6.0,11.0,39,0.00,,,0.00,,2013-07-04 19:12:00,
2013-07-04 14:22:00,90.0,62.0,-100.00,NE,40,6.0,11.0,39,0.00,,,0.00,,2013-07-04 19:22:00,
2013-07-04 14:33:00,90.0,62.0,-100.00,NE,40,6.0,11.0,39,0.00,,,0.00,,2013-07-04 19:33:00,
2013-07-04 14:43:00,90.0,62.0,-100.00,NE,40,6.0,11.0,39,0.00,,,0.00,,2013-07-04 19:43:00,
2013-07-04 15:11:00,89.0,59.0,-100.00,ENE,62,6.0,10.0,36,0.00,,,0.00,,2013-07-04 20:11:00,
2013-07-04 15:22:00,89.0,59.0,-100.00,ENE,62,6.0,10.0,36,0.00,,,0.00,,2013-07-04 20:22:00,
2013-07-04 15:34:00,89.0,59.0,-100.00,ENE,62,6.0,10.0,36,0.00,,,0.00,,2013-07-04 20:34:00,
2013-07-04 15:42:00,89.0,59.0,-100.00,ENE,62,6.0,10.0,36,0.00,,,0.00,,2013-07-04 20:42:00,
2013-07-04 16:11:00,89.0,60.0,-100.00,NE,56,5.0,10.0,38,0.00,,,0.00,,2013-07-04 21:11:00,
2013-07-04 16:22:00,89.0,60.0,-100.00,NE,56,5.0,10.0,38,0.00,,,0.00,,2013-07-04 21:22:00,
2013-07-04 16:32:00,89.0,60.0,-100.00,NE,56,5.0,10.0,38,0.00,,,0.00,,2013-07-04 21:32:00,
2013-07-04 16:43:00,89.0,60.0,-100.00,NE,56,5.0,10.0,38,0.00,,,0.00,,2013-07-04 21:43:00,
2013-07-04 17:12:00,90.0,61.0,-100.00,NE,50,3.0,9.0,38,0.00,,,0.00,,2013-07-04 22:12:00,
2013-07-04 17:22:00,90.0,61.0,-100.00,NE,50,3.0,9.0,38,0.00,,,0.00,,2013-07-04 22:22:00,
2013-07-04 17:33:00,90.0,61.0,-100.00,NE,50,3.0,9.0,38,0.00,,,0.00,,2013-07-04 22:33:00,
2013-07-04 17:43:00,90.0,61.0,-100.00,NE,50,3.0,9.0,38,0.00,,,0.00,,2013-07-04 22:43:00,
2013-07-04 18:12:00,89.0,60.0,-100.00,ENE,76,4.0,7.0,38,0.00,,,0.00,,2013-07-04 23:12:00,
2013-07-04 18:23:00,89.0,60.0,-100.00,ENE,76,4.0,7.0,38,0.00,,,0.00,,2013-07-04 23:23:00,
2013-07-04 18:33:00,89.0,60.0,-100.00,ENE,76,4.0,7.0,38,0.00,,,0.00,,2013-07-04 23:33:00,
2013-07-04 18:43:00,89.0,60.0,-100.00,ENE,76,4.0,7.0,38,0.00,,,0.00,,2013-07-04 23:43:00,
2013-07-04 19:11:00,88.0,62.0,-100.00,NE,48,3.0,5.0,42,0.00,,,0.00,,2013-07-05 00:11:00,
2013-07-04 19:22:00,88.0,62.0,-100.00,NE,48,3.0,5.0,42,0.00,,,0.00,,2013-07-05 00:22:00,
2013-07-04 19:32:00,88.0,62.0,-100.00,NE,48,3.0,5.0,42,0.00,,,0.00,,2013-07-05 00:32:00,
2013-07-04 19:43:00,88.0,62.0,-100.00,NE,48,3.0,5.0,42,0.00,,,0.00,,2013-07-05 00:43:00,
2013-07-04 20:11:00,82.0,69.0,-100.00,NE,46,0.0,0.0,64,0.00,,,0.00,,2013-07-05 01:11:00,
2013-07-04 20:22:00,82.0,69.0,-100.00,NE,46,0.0,0.0,64,0.00,,,0.00,,2013-07-05 01:22:00,
2013-07-04 20:32:00,82.0,69.0,-100.00,NE,46,0.0,0.0,64,0.00,,,0.00,,2013-07-05 01:32:00,
2013-07-04 20:42:00,82.0,69.0,-100.00,NE,46,0.0,0.0,64,0.00,,,0.00,,2013-07-05 01:42:00,
2013-07-04 21:11:00,76.0,70.0,-100.00,NNE,14,0.0,0.0,81,0.00,,,0.00,,2013-07-05 02:11:00,
2013-07-04 21:22:00,76.0,70.0,-100.00,NNE,14,0.0,0.0,81,0.00,,,0.00,,2013-07-05 02:22:00,
2013-07-04 21:32:00,76.0,70.0,-100.00,NNE,14,0.0,0.0,81,0.00,,,0.00,,2013-07-05 02:32:00,
2013-07-04 21:42:00,76.0,70.0,-100.00,NNE,14,0.0,0.0,81,0.00,,,0.00,,2013-07-05 02:42:00,
2013-07-04 22:11:00,73.0,70.0,-100.00,NNW,342,0.0,0.0,89,0.00,,,0.00,,2013-07-05 03:11:00,
2013-07-04 22:22:00,73.0,70.0,-100.00,NNW,342,0.0,0.0,89,0.00,,,0.00,,2013-07-05 03:22:00,
2013-07-04 22:32:00,73.0,70.0,-100.00,NNW,342,0.0,0.0,89,0.00,,,0.00,,2013-07-05 03:32:00,
2013-07-04 22:42:00,73.0,70.0,-100.00,NNW,342,0.0,0.0,89,0.00,,,0.00,,2013-07-05 03:42:00,
2013-07-04 23:11:00,70.0,68.0,-100.00,West,281,0.0,0.0,92,0.00,,,0.00,,2013-07-05 04:11:00,
2013-07-04 23:22:00,70.0,68.0,-100.00,West,281,0.0,0.0,92,0.00,,,0.00,,2013-07-05 04:22:00,
2013-07-04 23:33:00,70.0,68.0,-100.00,West,281,0.0,0.0,92,0.00,,,0.00,,2013-07-05 04:33:00,
2013-07-04 23:43:00,70.0,68.0,-100.00,West,281,0.0,0.0,92,0.00,,,0.00,,2013-07-05 04:43:00,